Location: McCloud Nature Park
(39.8272°N, 86.6824°W)
Time: 15:45:57
(UTC-05:00)

Amateur Radio Satellites - All Passes

Search period start: 26 June 2016 15:15
Search period end: 27 June 2016 15:15
Location: McCloud Nature Park, 39.8272°N, 86.6824°W

Satellite Date Start Highest point End Downlink Frequencies (MHz)
Time Altitude Azimuth
Gurwin Techsat 1B 26 Jun 15:16:20 15:20:15 21° 267° (W) 15:24:10 435.225
SWISSCUBE 26 Jun 15:24:47 15:29:34 69° 286° (WNW) 15:34:19 437.505
ITAMSAT 1 26 Jun 15:34:49 15:39:34 36° 262° (W) 15:44:22 435.822/435.867
KKS-1 26 Jun 15:41:47 15:44:55 19° 94° (E) 15:48:02 437.445
AO-7 26 Jun 15:43:47 15:52:07 81° 253° (WSW) 16:00:32 29.400- 29.500
SO-50 26 Jun 15:44:32 15:48:42 28° 113° (ESE) 15:52:52 436.795
ISS 26 Jun 15:46:48 15:49:58 46° 33° (NNE) 15:53:08 145.825
ITUPSAT 1 26 Jun 15:49:59 15:54:32 43° 289° (WNW) 15:59:04 437.325
BEESAT 26 Jun 15:50:35 15:55:06 41° 289° (WNW) 15:59:34 436.000
YUBILEINY 26 Jun 15:53:18 15:56:31 12° 303° (WNW) 15:59:45 435.215
AIST 2 26 Jun 16:02:54 16:04:50 13° 252° (WSW) 16:06:46 435.215
HORYU 2 26 Jun 16:04:11 16:07:54 27° 68° (ENE) 16:11:39 437.375
STARS 26 Jun 16:20:05 16:23:41 24° 96° (E) 16:27:15 437.465
RS-15 26 Jun 16:25:45 16:34:19 22° 348° (NNW) 16:43:08 29.354- 29.394
Cosmos 2504 26 Jun 16:31:15 16:37:03 21° 296° (WNW) 16:43:08 435.465 / 435.565
MOZHAYETS 4 26 Jun 16:50:24 16:55:04 84° 285° (WNW) 16:59:41
NOAA 15 26 Jun 16:55:15 16:59:15 22° 64° (ENE) 17:03:15 137.62
NOAA 18 26 Jun 16:59:36 17:03:33 21° 62° (ENE) 17:07:30 137.9125
BRITE-PL 26 Jun 17:04:45 17:08:41 23° 68° (ENE) 17:12:24 437.365/2234.400
KKS-1 26 Jun 17:17:29 17:21:36 38° 289° (WNW) 17:25:43 437.445
Cubesat XI-IV 26 Jun 17:23:21 17:27:51 28° 66° (ENE) 17:32:23 437.490
ISS 26 Jun 17:23:52 17:26:10 18° 229° (SW) 17:28:28 145.825
SO-50 26 Jun 17:24:33 17:29:05 36° 310° (NW) 17:33:34 436.795
Cosmos 2499 26 Jun 17:30:24 17:34:01 13° 74° (ENE) 17:37:44 435.465 / 435.565
HORYU 2 26 Jun 17:40:40 17:44:23 26° 264° (W) 17:48:08 437.375
AO-7 26 Jun 17:41:47 17:46:02 15° 271° (W) 17:50:18 29.400- 29.500
AIST 1 26 Jun 17:46:38 17:50:55 63° 279° (W) 17:55:13
GOMX 1 26 Jun 17:50:12 17:54:07 27° 70° (ENE) 17:57:51 467.674
GONETS M04 26 Jun 17:51:20 17:58:46 33° 84° (E) 18:06:10
STARS 26 Jun 17:56:12 18:00:00 29° 291° (WNW) 18:03:48 437.465
CUTE-I 26 Jun 17:57:35 18:02:48 58° 72° (ENE) 18:08:04 437.470
CUBESAT XI-V 26 Jun 18:11:42 18:16:21 82° 102° (ESE) 18:20:57 437.345
JUGNU 26 Jun 18:18:53 18:18:53 10° 182° (S) 18:18:54 437.505
CUSAT 1 26 Jun 18:27:15 18:30:39 28° 71° (ENE) 18:33:24 437.405
LilacSat-2 26 Jun 18:27:52 18:31:37 69° 259° (W) 18:35:24 437.200
DANDE 26 Jun 18:29:09 18:32:20 16° 61° (ENE) 18:35:03 436.750
NOAA 15 26 Jun 18:33:36 18:38:42 47° 261° (W) 18:43:47 137.62
NOAA 18 26 Jun 18:38:27 18:43:46 54° 259° (W) 18:49:09 137.9125
CINEMA 3 26 Jun 18:40:09 18:40:45 10° 63° (ENE) 18:41:22 145.822/145.860
STRAND 1 26 Jun 18:40:35 18:41:25 10° 89° (E) 18:42:15 437.568
BRITE-PL 26 Jun 18:42:07 18:46:58 39° 262° (W) 18:51:30 437.365/2234.400
RS-15 26 Jun 18:43:00 18:52:50 27° 25° (NNE) 19:02:42 29.354- 29.394
CUTE 1.7 + AOD 2 26 Jun 18:54:39 18:56:58 14° 65° (ENE) 18:59:18 437.475
DOVE 4 26 Jun 19:01:19 19:05:42 70° 75° (ENE) 19:09:54 437.250
Cubesat XI-IV 26 Jun 19:02:53 19:07:46 36° 263° (W) 19:12:41 437.490
SEEDS 26 Jun 19:03:14 19:05:08 13° 64° (ENE) 19:07:01 437.485
Cosmos 2499 26 Jun 19:17:18 19:25:28 77° 94° (E) 19:34:13 435.465 / 435.565
HO-68 26 Jun 19:27:45 19:34:39 55° 68° (ENE) 19:41:36 435.675
GOMX 1 26 Jun 19:28:07 19:32:09 27° 264° (W) 19:35:58 467.674
CUTE-I 26 Jun 19:39:49 19:43:13 17° 268° (W) 19:46:38 437.470
UWE-3 26 Jun 19:43:52 19:45:04 11° 63° (ENE) 19:46:17 435.000/436.395/437.385
GONETS M04 26 Jun 19:46:45 19:55:10 52° 283° (WNW) 20:03:37
AAUSAT CUBESAT 2 26 Jun 19:47:15 19:50:27 22° 68° (ENE) 19:53:41 437.432
AUBIESAT-1 26 Jun 19:48:59 19:50:47 14° 62° (ENE) 19:52:36 437.475
CUBESAT XI-V 26 Jun 19:52:10 19:53:01 10° 299° (WNW) 19:53:52 437.345
CANX-2 26 Jun 20:07:37 20:11:53 75° 259° (W) 20:16:12 2200.000
DANDE 26 Jun 20:10:55 20:15:45 41° 270° (W) 20:19:25 436.750
CUSAT 1 26 Jun 20:11:18 20:12:04 11° 278° (W) 20:12:48 437.405
CINEMA 3 26 Jun 20:13:13 20:17:20 65° 258° (WSW) 20:21:28 145.822/145.860
STRAND 1 26 Jun 20:16:01 20:21:13 84° 283° (WNW) 20:26:21 437.568
COMPASS 1 26 Jun 20:18:02 20:22:11 61° 75° (ENE) 20:26:21 437.405
M-CUBED/EXP-1 PRIME 26 Jun 20:24:51 20:28:03 52° 70° (ENE) 20:31:15 437.505
CUBEBUG 2 26 Jun 20:25:01 20:28:59 46° 73° (ENE) 20:33:03 437.445
CUTE 1.7 + AOD 2 26 Jun 20:28:14 20:32:22 49° 261° (W) 20:36:33 437.475
SEEDS 26 Jun 20:36:09 20:40:19 56° 260° (W) 20:44:32 437.485
PRISM 26 Jun 20:37:30 20:40:47 23° 96° (E) 20:44:02 437.425
RS-15 26 Jun 20:55:57 21:08:17 68° 53° (NE) 21:20:28 29.354- 29.394
HUMSAT D 26 Jun 20:59:37 21:01:04 12° 63° (ENE) 21:02:32 437.325/437.525
ZACube-1 26 Jun 21:00:42 21:04:45 52° 74° (ENE) 21:08:55 437.345
Cosmos 2499 26 Jun 21:13:18 21:19:34 23° 295° (WNW) 21:26:09 435.465 / 435.565
Oscar 11 26 Jun 21:14:33 21:18:53 85° 75° (ENE) 21:23:15 145.826/435.025
AO-85 26 Jun 21:14:48 21:19:22 28° 112° (ESE) 21:23:52 145.980
HO-68 26 Jun 21:16:45 21:22:39 28° 265° (W) 21:28:37 435.675
UWE-3 26 Jun 21:16:50 21:20:56 64° 259° (WSW) 21:25:11 435.000/436.395/437.385
FUNcube-1 26 Jun 21:19:21 21:23:31 82° 77° (ENE) 21:27:48 145.935
AAUSAT CUBESAT 2 26 Jun 21:22:04 21:25:45 30° 264° (W) 21:29:29 437.432
AUBIESAT-1 26 Jun 21:22:09 21:25:04 28° 257° (WSW) 21:27:59 437.475
DELFI C3 26 Jun 21:50:53 21:54:55 82° 259° (W) 21:58:58 145.870
COMPASS 1 26 Jun 21:57:19 21:58:07 10° 270° (W) 21:58:55 437.405
STRAND 1 26 Jun 21:58:26 21:59:32 11° 302° (WNW) 22:00:39 437.568
CUBEBUG 2 26 Jun 22:03:54 22:05:54 13° 269° (W) 22:07:56 437.445
YUBILEINY 26 Jun 22:07:47 22:10:00 11° 56° (NE) 22:12:11 435.215
PRISM 26 Jun 22:12:38 22:16:02 26° 291° (WNW) 22:19:26 437.425
TIGRISAT 26 Jun 22:19:03 22:22:39 22° 94° (E) 22:26:15 435.000
UNISAT 6 26 Jun 22:23:14 22:27:07 26° 95° (E) 22:31:01 437.425
HUMSAT D 26 Jun 22:32:03 22:36:08 61° 259° (W) 22:40:19 437.325/437.525
DX 1 26 Jun 22:32:30 22:34:01 12° 62° (ENE) 22:35:32 434.975-435.025
ZACube-1 26 Jun 22:39:45 22:41:23 12° 270° (W) 22:43:03 437.345
AO-85 26 Jun 22:54:33 22:59:43 43° 308° (NW) 23:04:42 145.980
CUBEBUG 1 26 Jun 22:55:38 22:59:20 28° 69° (ENE) 23:03:01 437.445
VELOX 1 26 Jun 22:58:12 23:01:57 28° 69° (ENE) 23:05:42 145.980
ANTELSAT 26 Jun 23:02:35 23:07:13 68° 101° (ESE) 23:11:53 437.575/2403.000
50 SAT 26 Jun 23:03:51 23:07:08 30° 71° (ENE) 23:10:26 437.505
QB50P1 26 Jun 23:06:40 23:07:42 11° 90° (E) 23:08:44 145.935-145.965
POPSAT HIP 1 26 Jun 23:09:17 23:10:45 12° 91° (E) 23:12:13 437.405
RS-15 26 Jun 23:09:19 23:20:01 37° 255° (WSW) 23:30:38 29.354- 29.394
Cosmos 2491 26 Jun 23:16:30 23:20:52 15° 76° (ENE) 23:25:14 435.465 / 435.565
QB50P2 26 Jun 23:19:53 23:22:41 17° 93° (E) 23:25:30 145.880/145.840
POLYITAN 1 26 Jun 23:22:27 23:25:19 17° 93° (E) 23:28:12 437.675
DUCHIFAT 1 26 Jun 23:25:00 23:27:40 16° 93° (E) 23:30:19 145.980
ESTCUBE 1 26 Jun 23:25:22 23:29:55 89° 65° (ENE) 23:34:28 437.505/2401.250
AISAT 26 Jun 23:38:01 23:42:25 81° 76° (ENE) 23:46:50 437.250
UKube-1 26 Jun 23:49:15 23:53:30 64° 75° (ENE) 23:57:48 .
TISAT 1 26 Jun 23:50:31 23:51:25 11° 62° (ENE) 23:52:19 437.305
SPROUT 26 Jun 23:54:53 23:58:57 47° 73° (ENE) 00:03:03 437.525
TIGRISAT 26 Jun 23:55:09 23:59:23 36° 289° (WNW) 00:03:39 435.000
UNISAT 6 26 Jun 23:59:44 00:03:47 31° 291° (WNW) 00:07:53 437.425
YUBILEINY 27 Jun 00:00:08 00:08:53 61° 79° (ENE) 00:17:35 435.215
DX 1 27 Jun 00:05:19 00:09:38 66° 258° (WSW) 00:13:59 434.975-435.025
SO-50 27 Jun 00:16:38 00:20:21 23° 45° (NE) 00:23:58 436.795
BUGSAT 1 27 Jun 00:28:21 00:32:10 37° 98° (E) 00:36:00 437.445
Cosmos 2504 27 Jun 00:28:34 00:36:12 31° 69° (ENE) 00:43:36 435.465 / 435.565
CUBEBUG 1 27 Jun 00:31:58 00:35:34 25° 264° (W) 00:39:10 437.445
VELOX 1 27 Jun 00:34:41 00:38:21 25° 264° (W) 00:42:02 145.980
NANOSAT C BR1 27 Jun 00:37:47 00:42:01 67° 285° (WNW) 00:46:13 145.865
50 SAT 27 Jun 00:38:30 00:40:52 16° 266° (W) 00:43:16 437.505
QB50P1 27 Jun 00:39:38 00:43:50 60° 286° (WNW) 00:48:02 145.935-145.965
ANTELSAT 27 Jun 00:41:16 00:43:21 13° 297° (WNW) 00:45:27 437.575/2403.000
POPSAT HIP 1 27 Jun 00:42:41 00:46:51 57° 286° (WNW) 00:51:01 437.405
QB50P2 27 Jun 00:54:40 00:58:38 38° 288° (WNW) 01:02:35 145.880/145.840
SWISSCUBE 27 Jun 00:55:18 00:57:46 14° 62° (ENE) 01:00:14 437.505
POLYITAN 1 27 Jun 00:57:18 01:01:15 38° 288° (WNW) 01:05:12 437.675
DUCHIFAT 1 27 Jun 00:59:33 01:03:31 40° 288° (WNW) 01:07:29 145.980
JAS-2 27 Jun 01:04:18 01:09:41 44° 97° (E) 01:14:41 435.910
Cosmos 2491 27 Jun 01:07:28 01:16:15 83° 96° (E) 01:25:02 435.465 / 435.565
ITUPSAT 1 27 Jun 01:19:13 01:22:50 22° 65° (ENE) 01:26:27 437.325
BEESAT 27 Jun 01:19:27 01:23:05 22° 66° (ENE) 01:26:43 436.000
TISAT 1 27 Jun 01:22:22 01:26:30 67° 259° (W) 01:30:40 437.305
UKube-1 27 Jun 01:29:11 01:29:57 10° 269° (W) 01:30:44 .
PCSat 27 Jun 01:30:44 01:34:27 19° 105° (ESE) 01:38:10 145.827
SPROUT 27 Jun 01:33:00 01:35:10 14° 268° (W) 01:37:20 437.525
Oscar 19 27 Jun 01:50:23 01:55:16 43° 99° (E) 02:00:08 437.125/150
Gurwin Techsat 1B 27 Jun 01:52:45 01:56:36 20° 93° (E) 02:00:25 435.225
SO-50 27 Jun 01:56:37 02:01:02 45° 244° (WSW) 02:05:19 436.795
YUBILEINY 27 Jun 01:57:56 02:05:01 28° 278° (W) 02:12:07 435.215
BUGSAT 1 27 Jun 02:04:35 02:07:16 17° 293° (WNW) 02:09:58 437.445
BEESAT 2 27 Jun 02:17:54 02:19:00 11° 108° (ESE) 02:20:09 435.950
Cosmos 2504 27 Jun 02:21:24 02:30:04 59° 269° (W) 02:38:23 435.465 / 435.565
O/OREOS (USA 219) 27 Jun 02:21:43 02:25:13 23° 102° (ESE) 02:28:44 437.305
SWISSCUBE 27 Jun 02:30:15 02:35:00 65° 259° (W) 02:39:47 437.505
KKS-1 27 Jun 02:39:41 02:42:29 17° 65° (ENE) 02:45:15 437.445
JAS-2 27 Jun 02:50:03 02:54:26 23° 298° (WNW) 02:58:34 435.910
ITUPSAT 1 27 Jun 02:55:53 03:00:22 40° 261° (W) 03:04:55 437.325
BEESAT 27 Jun 02:56:09 03:00:36 39° 262° (W) 03:05:06 436.000
Cosmos 2491 27 Jun 03:08:01 03:14:09 21° 296° (WNW) 03:20:19 435.465 / 435.565
PCSat 27 Jun 03:12:01 03:17:21 57° 302° (WNW) 03:22:43 145.827
STARS 27 Jun 03:16:26 03:19:38 20° 66° (ENE) 03:22:49 437.465
BEESAT 3 27 Jun 03:18:11 03:22:05 77° 302° (WNW) 03:26:02 437.485
Oscar 19 27 Jun 03:30:23 03:34:17 22° 295° (WNW) 03:38:11 437.125/150
Gurwin Techsat 1B 27 Jun 03:31:40 03:36:48 49° 289° (WNW) 03:41:54 435.225
AO-7 27 Jun 03:46:41 03:54:15 36° 98° (E) 04:01:44 29.400- 29.500
ITAMSAT 1 27 Jun 03:47:46 03:53:03 86° 106° (ESE) 03:58:16 435.822/435.867
MOZHAYETS 4 27 Jun 03:51:06 03:55:43 83° 76° (ENE) 04:00:23
BEESAT 2 27 Jun 03:52:24 03:56:19 59° 304° (NW) 04:00:16 435.950
AIST 1 27 Jun 03:54:43 03:58:22 27° 75° (ENE) 04:02:00
O/OREOS (USA 219) 27 Jun 04:00:23 04:04:25 32° 298° (WNW) 04:08:28 437.305
GONETS M04 27 Jun 04:03:11 04:07:46 15° 60° (ENE) 04:12:21
KKS-1 27 Jun 04:14:25 04:18:40 45° 260° (W) 04:22:56 437.445
AIST 2 27 Jun 04:21:31 04:23:33 13° 109° (ESE) 04:25:35 435.215
STARS 27 Jun 04:51:45 04:55:44 35° 262° (W) 04:59:45 437.465
PCSat 27 Jun 05:00:47 05:01:57 11° 323° (NW) 05:03:07 145.827
Cosmos 2499 27 Jun 05:10:25 05:17:43 28° 68° (ENE) 05:24:40 435.465 / 435.565
CUBESAT XI-V 27 Jun 05:13:48 05:18:29 72° 75° (ENE) 05:23:11 437.345
ITAMSAT 1 27 Jun 05:29:38 05:31:45 12° 301° (WNW) 05:33:52 435.822/435.867
HORYU 2 27 Jun 05:31:20 05:35:47 60° 101° (E) 05:40:13 437.375
AIST 1 27 Jun 05:32:32 05:35:48 22° 272° (W) 05:39:03
AO-7 27 Jun 05:39:10 05:47:09 51° 296° (WNW) 05:55:06 29.400- 29.500
Cubesat XI-IV 27 Jun 05:43:29 05:44:57 11° 89° (E) 05:46:24 437.490
AO-85 27 Jun 05:47:50 05:51:06 19° 43° (NE) 05:54:12 145.980
STRAND 1 27 Jun 05:54:32 05:57:34 16° 62° (ENE) 06:00:37 437.568
GONETS M04 27 Jun 05:57:24 06:06:10 77° 82° (E) 06:14:55
AIST 2 27 Jun 05:57:32 06:01:34 52° 305° (NW) 06:05:38 435.215
LilacSat-2 27 Jun 06:03:23 06:05:21 13° 92° (E) 06:07:19 437.200
CUTE-I 27 Jun 06:15:58 06:20:20 25° 95° (E) 06:24:39 437.470
BRITE-PL 27 Jun 06:47:19 06:51:28 67° 101° (ESE) 06:55:37 437.365/2234.400
NOAA 15 27 Jun 06:49:12 06:54:28 70° 103° (ESE) 06:59:40 137.62
CUBESAT XI-V 27 Jun 06:55:11 06:56:20 11° 271° (W) 06:57:29 437.345
NOAA 18 27 Jun 07:00:58 07:06:32 69° 103° (ESE) 07:12:03 137.9125
DOVE 4 27 Jun 07:01:07 07:04:11 19° 94° (E) 07:07:20 437.250
Cosmos 2499 27 Jun 07:02:48 07:11:28 64° 268° (W) 07:19:37 435.465 / 435.565
HORYU 2 27 Jun 07:09:36 07:11:49 14° 297° (WNW) 07:14:03 437.375
Cubesat XI-IV 27 Jun 07:20:14 07:25:39 85° 284° (WNW) 07:31:02 437.490
CUSAT 1 27 Jun 07:24:08 07:31:50 57° 95° (E) 07:38:31 437.405
PRISM 27 Jun 07:26:52 07:29:30 17° 66° (ENE) 07:32:09 437.425
AO-85 27 Jun 07:27:35 07:31:56 51° 244° (WSW) 07:35:53 145.980
GOMX 1 27 Jun 07:29:21 07:33:33 87° 102° (ESE) 07:37:54 467.674
STRAND 1 27 Jun 07:31:06 07:36:11 64° 259° (W) 07:41:19 437.568
DANDE 27 Jun 07:31:22 07:38:43 36° 89° (E) 07:45:46 436.750
AO-7 27 Jun 07:35:56 07:37:56 11° 317° (NW) 07:39:56 29.400- 29.500
LilacSat-2 27 Jun 07:36:11 07:39:49 40° 287° (WNW) 07:43:28 437.200
PHONESAT 2.4 27 Jun 07:41:13 07:44:05 37° 157° (SSE) 07:46:58 2401.200-2431.200
CANX-2 27 Jun 07:54:15 07:57:24 20° 93° (E) 08:00:31 2200.000
CUTE-I 27 Jun 07:55:28 08:00:29 41° 290° (WNW) 08:05:29 437.470
GONETS M04 27 Jun 07:55:59 08:01:57 21° 281° (W) 08:07:55
COMPASS 1 27 Jun 08:04:54 08:05:14 10° 89° (E) 08:05:33 437.405
CINEMA 3 27 Jun 08:08:06 08:12:06 30° 97° (E) 08:16:15 145.822/145.860
CUTE 1.7 + AOD 2 27 Jun 08:14:07 08:17:51 28° 96° (E) 08:21:33 437.475
CUBEBUG 2 27 Jun 08:18:15 08:19:52 12° 90° (E) 08:21:31 437.445
SEEDS 27 Jun 08:21:15 08:24:44 24° 95° (E) 08:28:11 437.485
ISS 27 Jun 08:26:24 08:28:53 20° 132° (SE) 08:31:20 145.825
NOAA 15 27 Jun 08:30:41 08:33:37 15° 299° (WNW) 08:36:33 137.62
DOVE 4 27 Jun 08:38:01 08:41:58 36° 288° (WNW) 08:46:06 437.250
NOAA 18 27 Jun 08:43:09 08:46:35 17° 300° (WNW) 08:50:01 137.9125
HO-68 27 Jun 08:43:30 08:50:38 61° 102° (ESE) 08:57:44 435.675
ZACube-1 27 Jun 08:51:36 08:53:17 12° 90° (E) 08:54:57 437.345
PRISM 27 Jun 09:00:34 09:04:29 40° 261° (W) 09:08:25 437.425
AUBIESAT-1 27 Jun 09:01:09 09:03:25 15° 99° (E) 09:05:46 437.475
Cosmos 2499 27 Jun 09:01:31 09:02:38 10° 288° (WNW) 09:03:44 435.465 / 435.565
Cubesat XI-IV 27 Jun 09:03:08 09:04:52 12° 302° (WNW) 09:06:36 437.490
Oscar 11 27 Jun 09:03:42 09:06:28 16° 92° (E) 09:09:13 145.826/435.025
AAUSAT CUBESAT 2 27 Jun 09:04:36 09:08:35 41° 98° (E) 09:12:30 437.432
UWE-3 27 Jun 09:07:06 09:11:02 27° 96° (E) 09:15:00 435.000/436.395/437.385
CUSAT 1 27 Jun 09:07:31 09:14:04 29° 288° (WNW) 09:19:53 437.405
FUNcube-1 27 Jun 09:08:52 09:11:56 18° 93° (E) 09:15:00 145.935
DANDE 27 Jun 09:13:09 09:21:19 53° 284° (WNW) 09:29:02 436.750
PHONESAT 2.4 27 Jun 09:17:31 09:20:35 82° 352° (N) 09:23:41 2401.200-2431.200
TIGRISAT 27 Jun 09:17:53 09:20:39 17° 65° (ENE) 09:23:26 435.000
UNISAT 6 27 Jun 09:22:03 09:25:11 20° 66° (ENE) 09:28:20 437.425
CANX-2 27 Jun 09:29:26 09:33:19 33° 289° (WNW) 09:37:09 2200.000
DELFI C3 27 Jun 09:30:56 09:32:55 13° 92° (E) 09:34:51 145.870
COMPASS 1 27 Jun 09:37:01 09:41:11 62° 285° (WNW) 09:45:18 437.405
M-CUBED/EXP-1 PRIME 27 Jun 09:37:47 09:41:33 48° 105° (ESE) 09:45:36 437.505
CINEMA 3 27 Jun 09:45:23 09:49:07 26° 291° (WNW) 09:52:58 145.822/145.860
CUTE 1.7 + AOD 2 27 Jun 09:50:07 09:53:32 23° 292° (WNW) 09:56:56 437.475
CUBEBUG 2 27 Jun 09:52:18 09:56:52 67° 285° (WNW) 10:01:31 437.445
SEEDS 27 Jun 09:56:49 10:00:23 27° 290° (WNW) 10:03:55 437.485
ANTELSAT 27 Jun 10:00:40 10:04:50 51° 73° (ENE) 10:09:05 437.575/2403.000
ISS 27 Jun 10:02:00 10:05:07 42° 328° (NNW) 10:08:15 145.825
QB50P2 27 Jun 10:13:08 10:14:51 12° 64° (ENE) 10:16:35 145.880/145.840
POLYITAN 1 27 Jun 10:15:40 10:17:28 13° 64° (ENE) 10:19:16 437.675
HUMSAT D 27 Jun 10:16:40 10:20:06 22° 94° (E) 10:23:29 437.325/437.525
DUCHIFAT 1 27 Jun 10:17:45 10:19:08 11° 63° (ENE) 10:20:31 145.980
PCSat 27 Jun 10:18:29 10:21:52 16° 44° (NE) 10:25:14 145.827
ZACube-1 27 Jun 10:25:26 10:29:56 64° 285° (WNW) 10:34:28 437.345
HO-68 27 Jun 10:32:05 10:37:49 27° 300° (WNW) 10:43:33 435.675
AUBIESAT-1 27 Jun 10:34:18 10:38:00 43° 291° (WNW) 10:41:57 437.475
Oscar 11 27 Jun 10:38:40 10:42:46 41° 288° (WNW) 10:46:52 145.826/435.025
AAUSAT CUBESAT 2 27 Jun 10:41:10 10:43:42 16° 294° (WNW) 10:46:13 437.432
UWE-3 27 Jun 10:43:30 10:47:24 28° 290° (WNW) 10:51:21 435.000/436.395/437.385
FUNcube-1 27 Jun 10:44:02 10:48:19 43° 288° (WNW) 10:52:38 145.935
TIGRISAT 27 Jun 10:52:55 10:56:58 42° 262° (W) 11:01:08 435.000
PHONESAT 2.4 27 Jun 10:54:11 10:57:16 86° 189° (S) 11:00:21 2401.200-2431.200
UNISAT 6 27 Jun 10:57:43 11:01:38 35° 263° (W) 11:05:39 437.425
DELFI C3 27 Jun 11:04:11 11:07:59 42° 287° (WNW) 11:11:44 145.870
DANDE 27 Jun 11:04:21 11:05:42 10° 302° (WNW) 11:07:03 436.750
YUBILEINY 27 Jun 11:10:27 11:13:12 12° 74° (ENE) 11:15:57 435.215
M-CUBED/EXP-1 PRIME 27 Jun 11:13:44 11:15:48 14° 298° (WNW) 11:17:57 437.505
JAS-2 27 Jun 11:14:58 11:20:44 25° 63° (ENE) 11:26:11 435.910
BUGSAT 1 27 Jun 11:17:50 11:21:02 23° 69° (ENE) 11:24:14 437.445
RS-15 27 Jun 11:18:36 11:28:59 44° 108° (ESE) 11:39:53 29.354- 29.394
Cosmos 2491 27 Jun 11:19:09 11:27:11 40° 73° (ENE) 11:35:11 435.465 / 435.565
ESTCUBE 1 27 Jun 11:19:32 11:22:48 19° 94° (E) 11:26:02 437.505/2401.250
NANOSAT C BR1 27 Jun 11:28:48 11:32:58 79° 76° (ENE) 11:37:10 145.865
AISAT 27 Jun 11:30:10 11:32:52 16° 93° (E) 11:35:32 437.250
QB50P1 27 Jun 11:30:55 11:35:06 88° 78° (ENE) 11:39:20 145.935-145.965
POPSAT HIP 1 27 Jun 11:34:00 11:38:11 87° 257° (WSW) 11:42:24 437.405
BEESAT 3 27 Jun 11:36:08 11:39:58 45° 55° (NE) 11:43:46 437.485
UKube-1 27 Jun 11:39:38 11:40:46 11° 91° (E) 11:41:54 .
ANTELSAT 27 Jun 11:39:52 11:41:53 13° 269° (W) 11:43:55 437.575/2403.000
ISS 27 Jun 11:40:36 11:42:14 13° 347° (NNW) 11:43:53 145.825
QB50P2 27 Jun 11:46:02 11:50:09 57° 259° (W) 11:54:19 145.880/145.840
POLYITAN 1 27 Jun 11:48:41 11:52:47 56° 260° (W) 11:56:56 437.675
DUCHIFAT 1 27 Jun 11:50:11 11:54:18 61° 260° (W) 11:58:26 145.980
HUMSAT D 27 Jun 11:51:56 11:55:42 30° 290° (WNW) 11:59:28 437.325/437.525
DX 1 27 Jun 11:54:51 11:58:12 21° 95° (E) 12:01:32 434.975-435.025
PCSat 27 Jun 12:00:31 12:05:58 85° 244° (WSW) 12:11:23 145.827
50 SAT 27 Jun 12:06:48 12:10:19 41° 99° (E) 12:13:48 437.505
BEESAT 2 27 Jun 12:11:02 12:15:00 60° 56° (NE) 12:18:56 435.950
CUBEBUG 1 27 Jun 12:20:16 12:24:32 61° 101° (E) 12:28:48 437.445
VELOX 1 27 Jun 12:24:31 12:28:52 61° 101° (E) 12:33:13 145.980
PHONESAT 2.4 27 Jun 12:31:02 12:33:40 26° 206° (SSW) 12:36:19 2401.200-2431.200
O/OREOS (USA 219) 27 Jun 12:31:25 12:35:38 39° 63° (ENE) 12:39:50 437.305
AIST 2 27 Jun 12:43:45 12:44:21 10° 39° (NE) 12:44:57 435.215
BUGSAT 1 27 Jun 12:52:58 12:56:19 25° 264° (W) 12:59:39 437.445
ESTCUBE 1 27 Jun 12:55:33 12:59:43 37° 289° (WNW) 13:03:50 437.505/2401.250
JAS-2 27 Jun 12:57:31 13:05:14 70° 258° (WSW) 13:12:21 435.910
YUBILEINY 27 Jun 12:59:39 13:08:16 72° 93° (E) 13:16:59 435.215
AISAT 27 Jun 13:05:22 13:09:32 44° 288° (WNW) 13:13:42 437.250
Oscar 19 27 Jun 13:06:20 13:11:24 59° 73° (ENE) 13:16:27 437.125/150
Cosmos 2504 27 Jun 13:06:57 13:13:00 24° 80° (E) 13:19:21 435.465 / 435.565
TISAT 1 27 Jun 13:07:44 13:10:47 19° 94° (E) 13:13:48 437.305
Gurwin Techsat 1B 27 Jun 13:12:53 13:17:27 30° 67° (ENE) 13:22:02 435.225
UKube-1 27 Jun 13:12:56 13:17:11 61° 286° (WNW) 13:21:25 .
BEESAT 3 27 Jun 13:15:05 13:17:15 14° 250° (WSW) 13:19:24 437.485
Cosmos 2491 27 Jun 13:15:58 13:24:02 44° 272° (W) 13:32:04 435.465 / 435.565
SPROUT 27 Jun 13:17:05 13:21:22 77° 284° (WNW) 13:25:39 437.525
ISS 27 Jun 13:18:39 13:19:49 11° 8° (N) 13:20:59 145.825
ITAMSAT 1 27 Jun 13:28:19 13:31:17 16° 61° (ENE) 13:34:16 435.822/435.867
RS-15 27 Jun 13:29:53 13:41:05 57° 311° (NW) 13:52:59 29.354- 29.394
DX 1 27 Jun 13:30:34 13:34:25 31° 290° (WNW) 13:38:15 434.975-435.025
50 SAT 27 Jun 13:42:00 13:43:37 13° 295° (WNW) 13:45:13 437.505
BEESAT 2 27 Jun 13:51:13 13:52:18 11° 252° (WSW) 13:53:23 435.950
CUBEBUG 1 27 Jun 13:58:33 14:00:17 12° 297° (WNW) 14:02:03 437.445
VELOX 1 27 Jun 14:02:54 14:04:48 13° 297° (WNW) 14:06:44 145.980
O/OREOS (USA 219) 27 Jun 14:11:36 14:14:43 19° 259° (W) 14:17:48 437.305
AIST 2 27 Jun 14:19:23 14:23:34 77° 59° (ENE) 14:27:42 435.215
SWISSCUBE 27 Jun 14:31:23 14:35:44 33° 97° (E) 14:40:02 437.505
TISAT 1 27 Jun 14:42:42 14:46:29 33° 289° (WNW) 14:50:16 437.305
AO-7 27 Jun 14:44:41 14:52:29 47° 63° (ENE) 15:00:21 29.400- 29.500
Oscar 19 27 Jun 14:48:01 14:51:05 16° 268° (W) 14:54:08 437.125/150
JAS-2 27 Jun 14:49:04 14:51:05 11° 273° (W) 14:53:05 435.910
Gurwin Techsat 1B 27 Jun 14:52:31 14:57:17 33° 263° (W) 15:02:05 435.225
ISS 27 Jun 14:54:14 14:57:07 28° 27° (NNE) 15:00:00 145.825
BEESAT 27 Jun 14:56:34 15:01:17 55° 101° (E) 15:05:58 436.000
ITUPSAT 1 27 Jun 14:56:44 15:01:28 54° 100° (E) 15:06:09 437.325
Cosmos 2504 27 Jun 14:57:29 15:05:28 69° 280° (W) 15:14:06 435.465 / 435.565
YUBILEINY 27 Jun 14:59:09 15:05:52 24° 294° (WNW) 15:12:40 435.215
ITAMSAT 1 27 Jun 15:04:59 15:10:09 69° 258° (WSW) 15:15:23 435.822/435.867
